ファン・ネス彗星

327P/Van Ness (2009)

English version
Home page
Updated on August 15, 2015

---------------------------------------------------------------------

・ プロフィール

・ 軌道要素

Epoch 2009 Mar. 30.0 TT = JDT 2454920.5
T 2009 Mar. 21.70412 TT                                 MPCW
q   1.5511571            (2000.0)            P               Q
n   0.14686613     Peri.  185.01941     +0.99807855     -0.00302852
a   3.5578553      Node   173.99677     -0.01063637     +0.97560423
e   0.5640190      Incl.   36.28088     -0.06104156     -0.21951586
P   6.71
From 55 observations 2002 Aug. 17-2015 Aug. 10, mean residual 0".6.

・ 光度変化

        m1 = 14.5 + 5 logΔ + 10.0 log r

---------------------------------------------------------------------

軌道要素はM.P.E.C. 2015-P24に掲載されたものです。
光度グラフはComet for Windowsで作成したものです。

---------------------------------------------------------------------

Copyright(C) Seiichi Yoshida (comet@aerith.net). All rights reserved.